"2009-06-14 00:00:00",973745,4.47,154.2,1.44,0.157,19.36,106.9243,17,18,62.27,0,110.6,13.31,17.81,116.2
"2009-06-14 00:00:30",973746,4.152,157.5,0.933,0.062,19.16,106.927,17.01,18.01,62.13,0,110.5,13.31,17.82,119.5
"2009-06-14 00:01:00",973747,4.159,161.6,2.661,0.119,16.24,106.9286,17.01,18.01,62.18,0,110.6,13.31,17.82,123.6
"2009-06-14 00:01:30",973748,4.306,166.7,5.032,0.234,18.8,106.9298,17.02,18,59.05,0,110.6,13.31,17.83,128.7
"2009-06-14 00:02:00",973749,4.024,171.4,5.434,0.231,18.77,106.9351,17.03,18,56.16,0,110.6,13.31,17.84,133.4
"2009-06-14 00:02:30",973750,4.229,169.2,2.647,0.207,18.93,106.9568,17.08,18.01,57.25,0,110.5,13.31,17.90,131.2
"2009-06-14 00:03:00",973751,4.024,165.8,1.047,0.092,18.72,106.9642,17.1,18.01,60.03,0,110.6,13.31,17.92,127.8
"2009-06-14 00:03:30",973752,3.992,174.7,5.426,0.182,18.55,106.9644,17.1,18.04,59.03,0,110.6,13.31,17.92,136.7
"2009-06-14 00:04:00",973753,3.617,175.3,1.177,0.102,18.62,106.9904,17.17,18.08,62.98,0,110.6,13.31,17.98,137.3
"2009-06-14 00:04:30",973754,3.447,172.6,1.296,0.11,19.08,107.0014,17.2,18.1,64.93,0,110.6,13.31,18.01,134.6
"2009-06-14 00:05:00",973755,3.271,166.7,2.626,0.124,16.58,107.0273,17.27,18.15,67.61,0,110.6,13.3,18.08,128.7
"2009-06-14 00:05:30",973756,2.733,171.5,2.701,0.304,19.69,107.0318,17.28,18.18,66.44,0,110.6,13.3,18.09,133.5
"2009-06-14 00:06:00",973757,2.435,175.8,2.194,0.126,18.78,107.0318,17.28,18.16,60.75,0,110.5,13.3,18.09,137.8
"2009-06-14 00:06:30",973758,3.811,171.1,3.709,0.707,17.57,107.0318,17.28,18.14,44.85,0,110.5,13.3,18.09,133.1
"2009-06-14 00:07:00",973759,4.536,180.8,21.45,0.759,16.8,107.0318,17.28,18.13,44.06,0,110.5,13.3,18.09,142.8
"2009-06-14 00:07:30",973760,4.747,213.1,17.94,0.812,16.64,107.0228,17.25,18.12,47.24,0,110.5,13.3,18.07,175.1
"2009-06-14 00:08:00",973761,4.582,178.3,12.91,0.711,17.12,107.0061,17.21,18.12,44.42,0,110.5,13.3,18.02,140.3
"2009-06-14 00:08:30",973762,4.087,238.8,18.99,0.619,17.16,106.998,17.19,18.11,44.86,0,110.5,13.3,18.00,200.8
"2009-06-14 00:09:00",973763,2.834,264.2,4.687,0.418,18.03,106.998,17.19,18.11,49.23,0,110.5,13.31,18.00,226.2
"2009-06-14 00:09:30",973764,1.741,268.2,4.374,0.372,17.99,106.9949,17.18,18.13,56.22,0,110.5,13.31,17.99,230.2
"2009-06-14 00:10:00",973765,0.644,257.2,3.311,0.157,17.8,106.978,17.14,18.14,59.2,0,110.5,13.31,17.95,219.2
"2009-06-14 00:10:30",973766,0.099,256.5,23.99,0.151,18.09,106.9678,17.11,18.14,61.58,0,110.5,13.32,17.92,218.5
"2009-06-14 00:11:00",973767,0.014,105.7,74.56,0.115,18.29,106.9642,17.1,18.14,63.55,0,110.5,13.32,17.92,67.7
"2009-06-14 00:11:30",973768,0.356,120.8,18.69,0.226,17.83,106.9642,17.1,18.13,64.06,0,110.5,13.32,17.92,82.8
"2009-06-14 00:12:00",973769,1.107,164.7,56.52,0.419,17.54,106.9642,17.1,18.13,60.87,0,110.5,13.32,17.92,126.7
"2009-06-14 00:12:30",973770,1.085,204.8,23.15,0.239,-2.049,106.9639,17.1,18.11,59.32,0,110.5,13.32,17.91,166.8
"2009-06-14 00:13:00",973771,0.617,252.4,15.79,0.19,17.9,106.9619,17.1,18.1,61.37,0,110.5,13.32,17.91,214.4
"2009-06-14 00:13:30",973772,0.455,287.1,33.78,0.213,17.89,106.9523,17.07,18.09,61.34,0,110.5,13.32,17.88,249.1
"2009-06-14 00:14:00",973773,0.243,97,67.66,0.253,17.97,106.9444,17.05,18.07,61.27,0,110.5,13.32,17.86,59.0
"2009-06-14 00:14:30",973774,0.991,153,29.81,0.271,17.71,106.9304,17.02,18.08,60.81,0,110.5,13.32,17.83,115.0
"2009-06-14 00:15:00",973775,0.97,119.8,34.2,0.402,17.76,106.9304,17.02,18.06,56.33,0,110.5,13.32,17.83,81.8
"2009-06-14 00:15:30",973776,1.48,102.9,11.37,0.302,18.01,106.9304,17.02,18.03,58.17,0,110.5,13.32,17.83,64.9
"2009-06-14 00:16:00",973777,1.715,95.4,7.11,0.171,17.77,106.9304,17.02,18.03,59.55,0,110.6,13.32,17.83,57.4
"2009-06-14 00:16:30",973778,2.09,77.48,7.163,0.134,18.21,106.9267,17.01,18.02,57.19,0,110.6,13.32,17.82,39.5
"2009-06-14 00:17:00",973779,1.626,68.56,9.55,0.248,18.32,106.9236,17,18.03,61.76,0,110.6,13.32,17.81,30.6
"2009-06-14 00:17:30",973780,0.862,17.86,20.65,0.241,18.23,106.9298,17.02,18.03,64.07,0,110.5,13.32,17.83,339.9
"2009-06-14 00:18:00",973781,0.665,4.088,13.08,0.224,18.04,106.9304,17.02,18.02,64.7,0,110.5,13.32,17.83,326.1
"2009-06-14 00:18:30",973782,1.14,345.8,8.25,0.168,18.07,106.9304,17.02,18.03,64.77,0,110.6,13.32,17.83,307.8
"2009-06-14 00:19:00",973783,1.311,1.938,23.89,0.305,18.05,106.9304,17.02,18.03,64.79,0,110.5,13.32,17.83,323.9
"2009-06-14 00:19:30",973784,0.792,50.99,9.17,0.208,17.9,106.9304,17.02,18.04,64.37,0,110.5,13.32,17.83,13.0
"2009-06-14 00:20:00",973785,0.695,65.97,12.94,0.1,17.73,106.9304,17.02,18.05,64.48,0,110.5,13.32,17.83,28.0
"2009-06-14 00:20:30",973786,0.757,92.5,20.34,0.238,17.95,106.9298,17.02,18.04,64.31,0,110.6,13.31,17.83,54.5
"2009-06-14 00:21:00",973787,0.797,98.7,13.44,0.194,17.93,106.9301,17.02,18.03,64.16,0,110.5,13.31,17.83,60.7
"2009-06-14 00:21:30",973788,1.38,114.4,3.972,0.097,18.09,106.9301,17.02,18.03,65.98,0,110.5,13.31,17.83,76.4
"2009-06-14 00:22:00",973789,1.666,118.1,2.304,0.225,18,106.9304,17.02,18.05,67.81,0,110.5,13.31,17.83,80.1
"2009-06-14 00:22:30",973790,2.572,125.2,2.196,0.207,18.13,106.9304,17.02,18.05,66.37,0,110.5,13.31,17.83,87.2
"2009-06-14 00:23:00",973791,2.734,125.2,0.398,0.047,18.11,106.9371,17.03,18.05,64.77,0,110.6,13.31,17.85,87.2
"2009-06-14 00:23:30",973792,2.669,124.9,0.908,0.08,17.96,106.9523,17.07,18.05,64.07,0,110.6,13.31,17.88,86.9
"2009-06-14 00:24:00",973793,2.862,126.3,0.911,0.124,17.73,106.9585,17.09,18.05,63,0,110.6,13.31,17.90,88.3
"2009-06-14 00:24:30",973794,2.924,126.9,1.385,0.066,17.68,106.9622,17.1,18.06,58.96,0,110.6,13.31,17.91,88.9
"2009-06-14 00:25:00",973795,3.06,124.6,0.99,0.046,17.62,106.9639,17.1,18.04,56.47,0,110.6,13.31,17.91,86.6
"2009-06-14 00:25:30",973796,3.377,128.5,1.304,0.143,17.67,106.9642,17.1,18.05,56.95,0,110.6,13.31,17.92,90.5
"2009-06-14 00:26:00",973797,3.813,132.1,2.871,0.242,17.31,106.9642,17.1,18.05,52.03,0,110.6,13.31,17.92,94.1
"2009-06-14 00:26:30",973798,3.964,136.1,5.469,0.192,16.91,106.9642,17.1,18.05,44.75,0,110.6,13.32,17.92,98.1
"2009-06-14 00:27:00",973799,3.98,134,3.65,0.216,16.59,106.9642,17.1,18.04,43.1,0,110.6,13.32,17.92,96.0
"2009-06-14 00:27:30",973800,4.067,125.6,3.213,0.238,16.75,106.9642,17.1,18.06,42.64,0,110.6,13.32,17.92,87.6
"2009-06-14 00:28:00",973801,3.973,125.3,2.027,0.248,16.81,106.9642,17.1,18.05,41.93,0,110.6,13.32,17.92,87.3
"2009-06-14 00:28:30",973802,4.552,129.2,3.182,0.335,16.85,106.9642,17.1,18.06,41.17,0,110.6,13.32,17.92,91.2
"2009-06-14 00:29:00",973803,4.586,130.2,3.266,0.48,17.01,106.9642,17.1,18.08,41.44,0,110.6,13.32,17.92,92.2
"2009-06-14 00:29:30",973804,5.083,131.4,3.215,0.374,17.26,106.9642,17.1,18.06,39.01,0,110.6,13.32,17.92,93.4
"2009-06-14 00:30:00",973805,5.287,123.2,2.118,0.239,17.19,106.9642,17.1,18.08,39.34,0,110.6,13.32,17.92,85.2
"2009-06-14 00:30:30",973806,4.976,119.3,2.696,0.279,17.2,106.9684,17.11,18.07,39.63,0,110.6,13.32,17.93,81.3
"2009-06-14 00:31:00",973807,4.527,116.1,2.651,0.16,17.23,106.9788,17.14,18.09,38.74,0,110.6,13.32,17.95,78.1
"2009-06-14 00:31:30",973808,4.889,114.1,3.867,0.493,17.31,106.9932,17.18,18.09,38.38,0,110.6,13.32,17.99,76.1
"2009-06-14 00:32:00",973809,5.069,117.6,1.885,0.561,17.34,106.998,17.19,18.09,38.82,0,110.6,13.32,18.00,79.6
"2009-06-14 00:32:30",973810,5.147,114.7,3.088,0.305,17.17,106.998,17.19,18.11,39.03,0,110.6,13.32,18.00,76.7
"2009-06-14 00:33:00",973811,5.245,105.6,1.829,0.185,17.16,107.0019,17.2,18.12,38.59,0,110.6,13.32,18.01,67.6
"2009-06-14 00:33:30",973812,4.932,107.7,3.825,0.25,17.01,107.0177,17.24,18.15,39.33,0,110.6,13.32,18.05,69.7
"2009-06-14 00:34:00",973813,5.054,112.4,2.068,0.353,16.91,107.0315,17.28,18.16,40.63,0,110.6,13.32,18.09,74.4
"2009-06-14 00:34:30",973814,5.305,109.9,2.725,0.138,17.11,107.0318,17.28,18.18,39.6,0,110.6,13.32,18.09,71.9
"2009-06-14 00:35:00",973815,5.434,111.6,1.635,0.119,16.76,107.0318,17.28,18.19,39.8,0,110.6,13.32,18.09,73.6
"2009-06-14 00:35:30",973816,5.139,113.2,1.393,0.221,16.89,107.0414,17.3,18.21,40.6,0,110.6,13.32,18.11,75.2
"2009-06-14 00:36:00",973817,4.962,106.6,2.161,0.155,17.1,107.058,17.34,18.22,38.51,0,110.6,13.32,18.16,68.6
"2009-06-14 00:36:30",973818,4.847,104,2.161,0.17,17.02,107.0656,17.36,18.24,38,0,110.6,13.32,18.18,66.0
"2009-06-14 00:37:00",973819,4.846,101.6,2.522,0.129,16.66,107.0656,17.36,18.26,38.25,0,110.6,13.31,18.18,63.6
"2009-06-14 00:37:30",973820,5.046,105.9,0.699,0.05,16.22,107.0656,17.36,18.27,40.44,0,110.6,13.31,18.18,67.9
"2009-06-14 00:38:00",973821,5.007,106.8,1.458,0.124,16.47,107.0664,17.37,18.29,40.1,0,110.6,13.31,18.18,68.8
"2009-06-14 00:38:30",973822,4.924,100.1,1.692,0.112,16.46,107.0791,17.4,18.31,39.07,0,110.6,13.31,18.21,62.1
"2009-06-14 00:39:00",973823,4.83,99.8,1.898,0.152,16.41,107.0962,17.44,18.3,39.09,0,110.6,13.31,18.25,61.8
"2009-06-14 00:39:30",973824,4.741,98.6,2.136,0.151,16.65,107.0955,17.44,18.32,38.24,0,110.6,13.31,18.25,60.6
"2009-06-14 00:40:00",973825,4.83,98.1,2.968,0.411,16.66,107.0943,17.44,18.33,38.16,0,110.6,13.31,18.25,60.1
"2009-06-14 00:40:30",973826,5.662,99.5,1.388,0.117,16.58,107.0906,17.43,18.33,37.86,0,110.6,13.31,18.24,61.5
"2009-06-14 00:41:00",973827,5.982,94.4,1.116,0.072,16.65,107.0977,17.45,18.35,37.6,0,110.6,13.31,18.26,56.4
"2009-06-14 00:41:30",973828,5.779,90.8,1.048,0.284,16.61,107.1143,17.49,18.38,37.56,0,110.6,13.31,18.30,52.8
"2009-06-14 00:42:00",973829,4.486,82.3,5.754,0.334,17,107.1103,17.48,18.4,38.97,0,110.6,13.31,18.29,44.3
"2009-06-14 00:42:30",973830,3.691,79.01,4.362,0.275,16.99,107.1069,17.47,18.42,40.49,0,110.6,13.31,18.28,41.0
"2009-06-14 00:43:00",973831,3.738,79.82,2.775,0.154,17.09,107.1102,17.48,18.43,41.54,0,110.6,13.31,18.29,41.8
"2009-06-14 00:43:30",973832,3.695,76.24,1.679,0.223,17.17,107.1228,17.51,18.45,42.05,0,110.6,13.31,18.32,38.2
"2009-06-14 00:44:00",973833,3.551,76.36,4.431,0.17,17.2,107.1308,17.53,18.46,42.09,0,110.6,13.31,18.34,38.4
"2009-06-14 00:44:30",973834,3.695,72.5,4.038,0.135,17.12,107.1308,17.53,18.48,42.22,0,110.6,13.31,18.34,34.5
"2009-06-14 00:45:00",973835,3.905,80.4,2.512,0.335,17.14,107.1308,17.53,18.52,41.76,0,110.6,13.31,18.34,42.4
"2009-06-14 00:45:30",973836,3.982,72.04,3.716,0.179,17.09,107.135,17.54,18.53,40.65,0,110.6,13.31,18.35,34.0
"2009-06-14 00:46:00",973837,3.641,66.98,1.687,0.076,17.19,107.1547,17.59,18.53,40.95,0,110.6,13.31,18.41,29.0
"2009-06-14 00:46:30",973838,3.716,63.01,2.093,0.157,17.22,107.164,17.62,18.55,41.51,0,110.6,13.31,18.43,25.0
"2009-06-14 00:47:00",973839,3.906,62.85,3.374,0.146,17.2,107.1646,17.62,18.58,41.64,0,110.6,13.31,18.43,24.8
"2009-06-14 00:47:30",973840,3.902,65.6,3.56,0.148,17.18,107.1646,17.62,18.59,41.62,0,110.6,13.31,18.43,27.6
"2009-06-14 00:48:00",973841,4.18,61.21,2.668,0.257,17.16,107.1646,17.62,18.61,41.51,0,110.6,13.31,18.43,23.2
"2009-06-14 00:48:30",973842,4.545,65.74,2.186,0.104,17.01,107.1713,17.63,18.62,42.27,0,110.6,13.31,18.45,27.7
"2009-06-14 00:49:00",973843,5.001,67.77,0.686,0.097,17.07,107.1865,17.67,18.63,43.82,0,110.6,13.31,18.49,29.8
"2009-06-14 00:49:30",973844,4.989,64.34,1.652,0.037,17.15,107.1891,17.68,18.64,44.86,0,110.6,13.31,18.49,26.3
"2009-06-14 00:50:00",973845,4.889,63.16,0.967,0.046,17.02,107.1944,17.69,18.66,44.71,0,110.6,13.31,18.51,25.2
"2009-06-14 00:50:30",973846,4.872,63.07,1.972,0.079,16.76,107.1964,17.7,18.66,46.12,0,110.6,13.31,18.51,25.1
"2009-06-14 00:51:00",973847,4.93,61.04,2.068,0.138,16.81,107.1958,17.7,18.68,46.74,0,110.6,13.31,18.51,23.0
"2009-06-14 00:51:30",973848,4.87,57.14,1.634,0.193,17.12,107.1874,17.68,18.69,46.36,0,110.6,13.31,18.49,19.1
"2009-06-14 00:52:00",973849,5.051,57.19,2.072,0.215,16.74,107.1809,17.66,18.68,46.35,0,110.6,13.31,18.47,19.2
"2009-06-14 00:52:30",973850,4.711,53.25,2.134,0.16,16.53,107.1654,17.62,18.69,47.1,0,110.6,13.31,18.43,15.2
"2009-06-14 00:53:00",973851,4.6,57.35,1.523,0.127,16.59,107.1646,17.62,18.69,47.33,0,110.6,13.31,18.43,19.3
"2009-06-14 00:53:30",973852,4.512,57.98,2.082,0.151,16.84,107.1637,17.61,18.68,47.46,0,110.6,13.31,18.43,20.0
"2009-06-14 00:54:00",973853,3.9,53.37,3.599,0.298,17.22,107.1454,17.57,18.66,46.96,0,110.6,13.3,18.38,15.4
"2009-06-14 00:54:30",973854,3.829,51.03,3.528,0.16,17.33,107.1308,17.53,18.63,44.95,0,110.6,13.3,18.34,13.0
"2009-06-14 00:55:00",973855,3.508,50.33,2.229,0.131,17.31,107.1308,17.53,18.61,44.25,0,110.6,13.3,18.34,12.3
"2009-06-14 00:55:30",973856,3.669,56.93,2.594,0.121,17.04,107.1308,17.53,18.59,45.31,0,110.6,13.29,18.34,18.9
"2009-06-14 00:56:00",973857,3.589,58.07,2.494,0.162,17.35,107.1221,17.51,18.59,46.2,0,110.6,13.29,18.32,20.1
"2009-06-14 00:56:30",973858,3.597,59.13,4.126,0.142,17.27,107.1111,17.48,18.57,45.61,0,110.6,13.3,18.29,21.1
"2009-06-14 00:57:00",973859,3.156,53.8,2.7,0.147,17.35,107.0973,17.44,18.55,44.96,0,110.6,13.29,18.26,15.8
"2009-06-14 00:57:30",973860,2.374,49.96,3.194,0.238,17.28,107.097,17.44,18.54,44.55,0,110.6,13.3,18.26,12.0
"2009-06-14 00:58:00",973861,2.543,57.39,5.64,0.195,17.16,107.097,17.44,18.52,45.3,0,110.6,13.29,18.26,19.4
"2009-06-14 00:58:30",973862,2.08,71.03,4.721,0.177,17.25,107.097,17.44,18.52,45.84,0,110.6,13.3,18.26,33.0
"2009-06-14 00:59:00",973863,2.47,79.78,2.745,0.181,17.29,107.097,17.44,18.51,46.06,0,110.6,13.3,18.26,41.8
"2009-06-14 00:59:30",973864,2.212,76.2,2.851,0.082,17.17,107.097,17.44,18.49,46.49,0,110.6,13.3,18.26,38.2
"2009-06-14 01:00:00",973865,2.043,75.75,3.321,0.12,17.14,107.097,17.44,18.5,46.39,0,110.6,13.3,18.26,37.8
"2009-06-14 01:00:30",973866,2.185,75.71,2.576,0.164,17.15,107.0922,17.43,18.48,46.07,0,110.6,13.3,18.24,37.7
"2009-06-14 01:01:00",973867,1.734,88.7,4.835,0.171,17.15,107.0874,17.42,18.47,45.97,0,110.6,13.3,18.23,50.7
"2009-06-14 01:01:30",973868,1.456,85.1,9.46,0.217,17.29,107.0804,17.4,18.47,45.69,0,110.6,13.3,18.21,47.1
"2009-06-14 01:02:00",973869,1.275,75.74,5.018,0.105,17.27,107.0756,17.39,18.45,45.44,0,110.6,13.3,18.20,37.7
"2009-06-14 01:02:30",973870,0.944,74.08,5.731,0.089,17.4,107.0711,17.38,18.46,45.2,0,110.6,13.3,18.19,36.1
"2009-06-14 01:03:00",973871,0.967,70.47,2.755,0.094,17.45,107.0686,17.37,18.45,45.29,0,110.6,13.3,18.18,32.5
"2009-06-14 01:03:30",973872,0.943,68.28,3.873,0.144,17.41,107.0666,17.37,18.44,45.83,0,110.6,13.3,18.18,30.3
"2009-06-14 01:04:00",973873,0.777,51.1,7.593,0.078,17.33,107.0643,17.36,18.45,46.21,0,110.6,13.3,18.17,13.1
"2009-06-14 01:04:30",973874,0.693,44.83,7.803,0.231,17.32,107.0638,17.36,18.46,46.64,0,110.6,13.3,18.17,6.8
"2009-06-14 01:05:00",973875,0.975,41.95,5.951,0.177,17.28,107.0638,17.36,18.44,46.2,0,110.6,13.3,18.17,4.0
"2009-06-14 01:05:30",973876,1.344,48.06,3.885,0.106,17.22,107.0638,17.36,18.43,46.15,0,110.6,13.3,18.17,10.1
"2009-06-14 01:06:00",973877,1.133,40.16,3.465,0.071,17.13,107.0632,17.36,18.44,46.02,0,110.6,13.3,18.17,2.2
"2009-06-14 01:06:30",973878,1.31,47.3,6.381,0.116,17.28,107.0632,17.36,18.44,46.11,0,110.6,13.3,18.17,9.3
"2009-06-14 01:07:00",973879,1.185,52.42,2.603,0.133,17.37,107.0632,17.36,18.43,46.18,0,110.6,13.3,18.17,14.4
"2009-06-14 01:07:30",973880,0.958,50.21,3.188,0.082,17.27,107.0635,17.36,18.42,46.16,0,110.6,13.3,18.17,12.2
"2009-06-14 01:08:00",973881,0.832,52.03,4.892,0.141,17.24,107.0632,17.36,18.43,46.26,0,110.6,13.3,18.17,14.0
"2009-06-14 01:08:30",973882,0.837,63.63,6.231,0.119,17.22,107.0632,17.36,18.42,46.39,0,110.6,13.3,18.17,25.6
"2009-06-14 01:09:00",973883,0.786,67.68,6.843,0.049,17.2,107.0632,17.36,18.42,46.58,0,110.6,13.3,18.17,29.7
"2009-06-14 01:09:30",973884,0.656,60.97,6.204,0.095,17.2,107.0632,17.36,18.43,47.03,0,110.6,13.3,18.17,23.0
"2009-06-14 01:10:00",973885,0.394,88.2,16.49,0.066,17.32,107.0632,17.36,18.42,47.28,0,110.6,13.3,18.17,50.2
"2009-06-14 01:10:30",973886,0.077,49.85,16.53,0.096,17.32,107.0632,17.36,18.41,47.08,0,110.6,13.3,18.17,11.8
"2009-06-14 01:11:00",973887,0.006,16.76,16.5,0.046,17.35,107.0632,17.36,18.42,47.29,0,110.6,13.3,18.17,338.8
"2009-06-14 01:11:30",973888,0.281,332.6,12.6,0.126,17.18,107.064,17.36,18.43,47.29,0,110.6,13.3,18.17,294.6
"2009-06-14 01:12:00",973889,0.419,331.7,12.66,0.094,17.07,107.0674,17.37,18.42,47.09,0,110.6,13.3,18.18,293.7
"2009-06-14 01:12:30",973890,0.588,333.5,3.502,0.109,17.2,107.0677,17.37,18.43,47.01,0,110.6,13.3,18.18,295.5
"2009-06-14 01:13:00",973891,0.877,323.9,5.6,0.201,17.24,107.0688,17.37,18.42,47.41,0,110.6,13.3,18.18,285.9
"2009-06-14 01:13:30",973892,1.07,323,5.739,0.097,17.12,107.0719,17.38,18.43,47.75,0,110.6,13.3,18.19,285.0
"2009-06-14 01:14:00",973893,0.889,315.5,5.671,0.087,17.21,107.0759,17.39,18.43,47.82,0,110.6,13.3,18.20,277.5
"2009-06-14 01:14:30",973894,0.94,316.1,2.33,0.097,17.27,107.0781,17.4,18.42,47.73,0,110.6,13.3,18.21,278.1
"2009-06-14 01:15:00",973895,1.027,322.3,8.25,0.146,17.23,107.0784,17.4,18.43,47.49,0,110.6,13.3,18.21,284.3
"2009-06-14 01:15:30",973896,0.874,326.4,7.112,0.047,17.28,107.0815,17.4,18.43,47.46,0,110.6,13.3,18.22,288.4
"2009-06-14 01:16:00",973897,0.79,326.6,4.274,0.091,17.33,107.0835,17.41,18.43,47.46,0,110.6,13.3,18.22,288.6
"2009-06-14 01:16:30",973898,0.649,327.1,3.7,0.051,17.3,107.0866,17.42,18.44,47.38,0,110.6,13.3,18.23,289.1
"2009-06-14 01:17:00",973899,0.867,328.4,6.109,0.161,17.22,107.0905,17.43,18.44,47.5,0,110.6,13.3,18.24,290.4
"2009-06-14 01:17:30",973900,1.055,321.2,2.041,0.068,17.09,107.0902,17.43,18.43,47.46,0,110.6,13.3,18.24,283.2
"2009-06-14 01:18:00",973901,0.899,333.2,4.508,0.091,17.13,107.0942,17.44,18.42,47.27,0,110.6,13.3,18.25,295.2
"2009-06-14 01:18:30",973902,0.815,334.8,3.487,0.061,17.31,107.0936,17.44,18.44,47.32,0,110.6,13.3,18.25,296.8
"2009-06-14 01:19:00",973903,0.792,332.1,4.308,0.045,17.41,107.0942,17.44,18.43,47.39,0,110.6,13.3,18.25,294.1
"2009-06-14 01:19:30",973904,0.706,330.9,4.134,0.059,17.4,107.0959,17.44,18.44,47.44,0,110.6,13.3,18.25,292.9
"2009-06-14 01:20:00",973905,0.659,323.5,3.985,0.061,17.35,107.0964,17.44,18.44,47.48,0,110.6,13.3,18.26,285.5
"2009-06-14 01:20:30",973906,0.636,329.5,3.4,0.038,17.36,107.0964,17.44,18.45,47.52,0,110.6,13.3,18.26,291.5
"2009-06-14 01:21:00",973907,0.634,336,5.221,0.08,17.33,107.097,17.44,18.44,47.57,0,110.6,13.3,18.26,298.0
"2009-06-14 01:21:30",973908,0.757,335.9,4.551,0.086,17.32,107.097,17.44,18.45,47.49,0,110.6,13.3,18.26,297.9
"2009-06-14 01:22:00",973909,0.91,334.4,5.064,0.076,17.16,107.097,17.44,18.44,46.93,0,110.6,13.3,18.26,296.4
"2009-06-14 01:22:30",973910,1.096,345.6,7.277,0.166,17.22,107.097,17.44,18.44,46.74,0,110.6,13.3,18.26,307.6
"2009-06-14 01:23:00",973911,1.515,328.3,2.643,0.084,17.23,107.0967,17.44,18.42,46.82,0,110.6,13.3,18.26,290.3
"2009-06-14 01:23:30",973912,1.59,318.1,1.683,0.082,17.29,107.0936,17.44,18.42,47.57,0,110.6,13.3,18.25,280.1
"2009-06-14 01:24:00",973913,1.68,319.7,1.713,0.037,17.15,107.0908,17.43,18.43,48.13,0,110.6,13.3,18.24,281.7
"2009-06-14 01:24:30",973914,1.64,314.7,3.192,0.036,17.2,107.093,17.43,18.42,48.33,0,110.6,13.3,18.25,276.7
"2009-06-14 01:25:00",973915,1.615,312.2,1.194,0.063,17.08,107.0959,17.44,18.41,48.73,0,110.6,13.3,18.25,274.2
"2009-06-14 01:25:30",973916,1.677,316.4,2.554,0.033,17.3,107.0964,17.44,18.41,48.96,0,110.6,13.3,18.26,278.4
"2009-06-14 01:26:00",973917,1.465,318.9,3.054,0.13,17.16,107.0959,17.44,18.42,48.4,0,110.6,13.3,18.25,280.9
"2009-06-14 01:26:30",973918,1.179,322.3,3.741,0.079,16.87,107.0945,17.44,18.42,48.06,0,110.6,13.3,18.25,284.3
"2009-06-14 01:27:00",973919,1.088,325.3,4.937,0.071,16.88,107.0925,17.43,18.41,48.02,0,110.6,13.3,18.25,287.3
"2009-06-14 01:27:30",973920,1.194,336.9,6.657,0.108,17.08,107.0925,17.43,18.42,47.91,0,110.6,13.3,18.25,298.9
"2009-06-14 01:28:00",973921,1.568,340.5,4.391,0.13,17.03,107.0894,17.42,18.42,47.85,0,110.6,13.3,18.24,302.5
"2009-06-14 01:28:30",973922,1.602,332.6,2.909,0.131,17.06,107.0815,17.4,18.42,47.79,0,110.6,13.3,18.22,294.6
"2009-06-14 01:29:00",973923,1.652,324.6,2.275,0.044,16.76,107.073,17.38,18.42,49.72,0,110.6,13.29,18.20,286.6
"2009-06-14 01:29:30",973924,1.532,324.5,1.344,0.102,16.2,107.0635,17.36,18.42,52.34,0,110.6,13.29,18.17,286.5
"2009-06-14 01:30:00",973925,1.671,320.9,2.869,0.079,16.04,107.0632,17.36,18.41,52.48,0,110.6,13.29,18.17,282.9
"2009-06-14 01:30:30",973926,1.923,314.2,0.931,0.097,16.21,107.0632,17.36,18.4,52.78,0,110.6,13.29,18.17,276.2
"2009-06-14 01:31:00",973927,2.149,314.2,0.811,0.08,16.52,107.0632,17.36,18.4,53.41,0,110.6,13.29,18.17,276.2
"2009-06-14 01:31:30",973928,2.416,318.6,3.483,0.096,16.93,107.0632,17.36,18.4,53.78,0,110.6,13.29,18.17,280.6
"2009-06-14 01:32:00",973929,2.734,321.8,2.022,0.118,17.17,107.0632,17.36,18.39,51.39,0,110.6,13.29,18.17,283.8
"2009-06-14 01:32:30",973930,2.848,319.5,1.308,0.081,17.24,107.0632,17.36,18.39,49.31,0,110.6,13.3,18.17,281.5
"2009-06-14 01:33:00",973931,3.009,318.5,2.949,0.088,17.06,107.0626,17.36,18.38,48.62,0,110.6,13.3,18.17,280.5
"2009-06-14 01:33:30",973932,3.628,319.5,1.39,0.098,17.1,107.05,17.32,18.37,49.86,0,110.6,13.3,18.14,281.5
"2009-06-14 01:34:00",973933,3.479,317.3,1.54,0.09,17.23,107.0328,17.28,18.37,52.35,0,110.6,13.3,18.09,279.3
"2009-06-14 01:34:30",973934,3.86,317.4,1.266,0.232,17.22,107.0294,17.27,18.37,53.23,0,110.6,13.3,18.08,279.4
"2009-06-14 01:35:00",973935,4.178,321.6,2.123,0.128,17.17,107.0294,17.27,18.35,56.41,0,110.6,13.3,18.08,283.6
"2009-06-14 01:35:30",973936,4.395,324.3,2.641,0.165,17.2,107.0294,17.27,18.35,57.9,0,110.6,13.3,18.08,286.3
"2009-06-14 01:36:00",973937,4.967,318.3,5.247,0.398,17.31,107.0294,17.27,18.36,58.56,0,110.6,13.3,18.08,280.3
"2009-06-14 01:36:30",973938,4.957,318.2,6.637,0.245,17.31,107.0294,17.27,18.33,57.41,0,110.6,13.3,18.08,280.2
"2009-06-14 01:37:00",973939,6.215,320.4,4.125,0.432,17.32,107.0283,17.27,18.32,57.77,0,110.6,13.3,18.08,282.4
"2009-06-14 01:37:30",973940,6.246,308.8,2.225,0.539,17.45,107.0215,17.25,18.32,57.05,0,110.6,13.3,18.06,270.8
"2009-06-14 01:38:00",973941,4.339,319.2,5.613,0.497,17.44,107.0088,17.22,18.3,56.27,0,110.6,13.3,18.03,281.2
"2009-06-14 01:38:30",973942,4.861,323.1,3.839,0.453,17.34,106.9967,17.19,18.29,55.45,0,110.6,13.3,18.00,285.1
"2009-06-14 01:39:00",973943,4.876,328,0.788,0.279,17.09,106.9956,17.18,18.27,54.74,0,110.6,13.3,18.00,290.0
"2009-06-14 01:39:30",973944,3.662,331,2.884,0.244,17.05,106.9917,17.17,18.24,51.67,0,110.6,13.3,17.99,293.0
"2009-06-14 01:40:00",973945,3.771,342,3.265,0.128,17,106.9798,17.14,18.2,50.78,0,110.6,13.3,17.96,304.0
"2009-06-14 01:40:30",973946,3.856,342.9,1.016,0.059,16.95,106.9762,17.13,18.18,50.59,0,110.6,13.3,17.95,304.9
"2009-06-14 01:41:00",973947,3.751,342.8,1.443,0.124,17.01,106.9708,17.12,18.18,51.08,0,110.6,13.3,17.93,304.8
"2009-06-14 01:41:30",973948,4.234,338.4,1.907,0.338,17.08,106.9638,17.1,18.18,51.88,0,110.6,13.3,17.91,300.4
"2009-06-14 01:42:00",973949,4.109,334.5,1.51,0.121,17.22,106.9618,17.1,18.17,54.23,0,110.6,13.3,17.91,296.5
"2009-06-14 01:42:30",973950,3.672,328.2,3.251,0.278,17.03,106.9618,17.1,18.16,54.83,0,110.6,13.3,17.91,290.2
"2009-06-14 01:43:00",973951,4.673,315.2,4.197,0.458,17.43,106.9618,17.1,18.16,52.95,0,110.6,13.3,17.91,277.2
"2009-06-14 01:43:30",973952,4.581,320.9,6.064,0.243,17.34,106.9618,17.1,18.15,51.91,0,110.6,13.3,17.91,282.9
"2009-06-14 01:44:00",973953,4.085,322.3,6.29,0.354,17.36,106.9618,17.1,18.14,51.93,0,110.6,13.3,17.91,284.3
"2009-06-14 01:44:30",973954,3.937,312.4,2.828,0.214,17.38,106.9581,17.09,18.13,51.98,0,110.6,13.3,17.90,274.4
"2009-06-14 01:45:00",973955,3.868,318.3,4.257,0.237,17.34,106.9415,17.05,18.13,52.08,0,110.6,13.3,17.86,280.3
"2009-06-14 01:45:30",973956,3.809,326.2,2.961,0.135,17.36,106.9317,17.02,18.11,52.48,0,110.6,13.3,17.83,288.2
"2009-06-14 01:46:00",973957,3.369,330.8,3.988,0.325,17.27,106.928,17.01,18.11,52.68,0,110.6,13.3,17.82,292.8
"2009-06-14 01:46:30",973958,3.747,328.6,4.125,0.275,17.28,106.928,17.01,18.11,52.56,0,110.6,13.3,17.82,290.6
"2009-06-14 01:47:00",973959,3.174,317.8,4.434,0.124,17.11,106.928,17.01,18.09,52.29,0,110.6,13.3,17.82,279.8
"2009-06-14 01:47:30",973960,3.131,318.1,4.621,0.212,17.01,106.9266,17.01,18.08,51.82,0,110.6,13.3,17.82,280.1
"2009-06-14 01:48:00",973961,3.025,326.9,2.88,0.385,16.92,106.9162,16.98,18.06,51.61,0,110.6,13.3,17.79,288.9
"2009-06-14 01:48:30",973962,3.871,324.6,5.204,0.257,17.31,106.9038,16.95,18.03,49.32,0,110.6,13.3,17.76,286.6